This demonstration page uses our WeatherBlox Daily Observations layout. Learn more.

Left ArrowRight Arrow

39.29038, -76.61219

Hourly Observations for January 19, 2015

Temp ( °F °C ) Dew Point ( °F °C ) Humidity (%) Winds ( mph kmh ) Pressure ( in mb ) Visibility ( mi km ) Precip ( " mm )
12:54 am 00:54 undefined 36 2.2 29 -1.7 76 76 undefined N/A 29.85 1011 N/A 0.00 0.00
1:54 am 01:54 undefined 35 1.7 29 -1.7 78 78 undefined N/A 29.86 1011 N/A 0.00 0.00
2:54 am 02:54 undefined 36 2.2 30 -1.1 79 79 undefined N/A 29.89 1012 N/A 0.00 0.00
3:54 am 03:54 undefined 37 2.8 31 -0.6 79 79 undefined N/A 29.90 1012 N/A 0.00 0.00
4:54 am 04:54 undefined 38 3.3 30 -1.1 73 73 undefined N/A 29.89 1012 N/A 0.00 0.00
5:54 am 05:54 undefined 38 3.3 30 -1.1 73 73 undefined N/A 29.92 1013 N/A 0.00 0.00
7:54 am 07:54 undefined 38 3.3 29 -1.7 70 70 undefined N/A 29.95 1014 N/A 0.00 0.00
8:54 am 08:54 undefined 39 3.9 29 -1.7 67 67 undefined N/A 29.97 1015 N/A 0.00 0.00
9:54 am 09:54 undefined 40 4.4 30 -1.1 68 68 undefined N/A 29.98 1015 N/A 0.00 0.00
10:54 am 10:54 undefined 43 6.1 31 -0.6 63 63 undefined N/A 29.99 1016 N/A 0.00 0.00
11:54 am 11:54 undefined 44 6.7 29 -1.7 55 55 undefined N/A 29.97 1015 N/A 0.00 0.00
12:54 pm 12:54 undefined 44 6.7 25 -3.9 47 47 undefined N/A 29.95 1014 N/A 0.00 0.00
1:54 pm 13:54 undefined 44 6.7 22 -5.6 41 41 undefined N/A 29.93 1014 N/A 0.00 0.00
2:54 pm 14:54 undefined 44 6.7 22 -5.6 41 41 undefined N/A 29.93 1014 N/A 0.00 0.00
3:54 pm 15:54 undefined 44 6.7 22 -5.6 41 41 undefined N/A 29.93 1013 N/A 0.00 0.00
4:54 pm 16:54 undefined 44 6.7 22 -5.6 41 41 undefined N/A 29.94 1014 N/A 0.00 0.00
5:54 pm 17:54 undefined 43 6.1 21 -6.1 42 42 undefined N/A 29.95 1014 N/A 0.00 0.00
6:54 pm 18:54 undefined 41 5 22 -5.6 47 47 undefined N/A 29.95 1014 N/A 0.00 0.00
7:54 pm 19:54 undefined 40 4.4 22 -5.6 49 49 undefined N/A 29.94 1014 N/A 0.00 0.00
8:54 pm 20:54 undefined 38 3.3 24 -4.4 57 57 undefined N/A 29.95 1014 N/A 0.00 0.00
9:54 pm 21:54 undefined 37 2.8 24 -4.4 59 59 undefined N/A 29.96 1015 N/A 0.00 0.00
10:54 pm 22:54 undefined 37 2.8 24 -4.4 59 59 undefined N/A 29.97 1015 N/A 0.00 0.00
11:54 pm 23:54 undefined 36 2.2 24 -4.4 62 62 undefined N/A 29.96 1014 N/A 0.00 0.00

Powered by AerisWeather